Simultaneous Nadir Overpasses (SNOs) Predictions

Prediction of SNOs between GOES-17 and METOP-B Satellite Orbit:

Table of predicted SNOs for the next 14.0 days since TLE Epoch: 7/29/2023
Index Date Time (GOES-17) GOES-17 Lat,Lon METOP-B Lat,Lon Distance(km) Time Diff (sec)
1 07/29/2023 04:13:43 -0.00,-104.70 0.67,-101.59 353.87 80
2 07/30/2023 16:32:36 0.00,-104.72 0.30,-106.16 163.71 80
3 07/31/2023 16:14:36 -0.00,-104.72 -0.81,-101.17 404.90 80
4 08/02/2023 04:33:36 0.00,-104.69 -0.21,-105.77 123.01 80
5 08/03/2023 04:10:17 0.00,-104.68 0.90,-100.78 445.46 80
6 08/04/2023 16:29:08 -0.00,-104.71 0.14,-105.34 71.97 80
7 08/05/2023 16:11:09 -0.00,-104.71 -0.97,-100.35 497.09 80
8 08/07/2023 04:30:09 0.00,-104.68 -0.05,-104.95 29.77 80
9 08/09/2023 16:28:21 -0.01,-104.70 -0.03,-104.51 21.22 80
